TimeCDT,TemperatureF,Dew PointF,Humidity,Sea Level PressureIn,VisibilityMPH,Wind Direction,Wind SpeedMPH,Gust SpeedMPH,PrecipitationIn,Events,Conditions,WindDirDegrees,DateUTC
12:15 AM,62.2,57.2,84,30.03,10.0,Calm,Calm,-,N/A,,Clear,0,2013-07-03 05:15:00
12:35 AM,62.2,57.6,85,30.03,10.0,Calm,Calm,-,N/A,,Clear,0,2013-07-03 05:35:00
12:55 AM,62.6,58.1,85,30.03,10.0,Calm,Calm,-,N/A,Rain,Light Rain,0,2013-07-03 05:55:00
1:15 AM,61.9,58.5,89,30.03,7.0,Calm,Calm,-,N/A,Rain,Light Rain,0,2013-07-03 06:15:00
1:35 AM,61.7,59.0,91,30.03,7.0,Calm,Calm,-,N/A,,Clear,0,2013-07-03 06:35:00
1:55 AM,61.2,58.6,91,30.03,7.0,Calm,Calm,-,N/A,,Scattered Clouds,0,2013-07-03 06:55:00
2:15 AM,61.3,58.8,91,30.02,7.0,Calm,Calm,-,N/A,,Overcast,0,2013-07-03 07:15:00
2:35 AM,61.3,58.5,90,30.02,7.0,Calm,Calm,-,N/A,,Overcast,0,2013-07-03 07:35:00
2:55 AM,61.2,58.6,91,30.02,7.0,Calm,Calm,-,N/A,,Mostly Cloudy,0,2013-07-03 07:55:00
3:15 AM,61.2,59.0,93,30.02,7.0,Calm,Calm,-,N/A,,Scattered Clouds,0,2013-07-03 08:15:00
3:35 AM,61.0,58.6,92,30.01,7.0,Calm,Calm,-,N/A,,Scattered Clouds,0,2013-07-03 08:35:00
3:55 AM,61.2,58.6,91,30.02,7.0,Calm,Calm,-,N/A,,Clear,0,2013-07-03 08:55:00
4:15 AM,61.0,58.6,92,30.02,5.0,Calm,Calm,-,N/A,,Mostly Cloudy,0,2013-07-03 09:15:00
4:35 AM,61.0,58.5,91,30.02,7.0,Calm,Calm,-,N/A,,Overcast,0,2013-07-03 09:35:00
4:55 AM,61.2,58.5,91,30.02,7.0,Calm,Calm,-,N/A,,Overcast,0,2013-07-03 09:55:00
5:15 AM,61.2,58.6,91,30.02,7.0,Calm,Calm,-,N/A,,Overcast,0,2013-07-03 10:15:00
5:35 AM,61.3,59.0,92,30.03,5.0,Calm,Calm,-,N/A,,Overcast,0,2013-07-03 10:35:00
5:55 AM,61.2,59.0,93,30.04,5.0,Calm,Calm,-,N/A,Rain,Light Rain,0,2013-07-03 10:55:00
6:15 AM,61.0,59.0,93,30.04,5.0,Calm,Calm,-,N/A,Rain,Light Rain,0,2013-07-03 11:15:00
6:35 AM,61.2,59.2,93,30.05,5.0,Calm,Calm,-,N/A,,Overcast,0,2013-07-03 11:35:00
6:55 AM,61.2,59.0,93,30.05,5.0,Calm,Calm,-,N/A,,Overcast,0,2013-07-03 11:55:00
7:15 AM,61.3,59.0,92,30.05,4.0,Calm,Calm,-,N/A,,Overcast,0,2013-07-03 12:15:00
7:35 AM,62.1,59.5,91,30.06,4.0,Calm,Calm,-,N/A,,Overcast,0,2013-07-03 12:35:00
7:55 AM,62.8,59.2,88,30.06,5.0,Calm,Calm,-,N/A,,Overcast,0,2013-07-03 12:55:00
8:15 AM,63.1,59.4,87,30.07,5.0,Calm,Calm,-,N/A,,Overcast,0,2013-07-03 13:15:00
8:35 AM,63.7,59.4,86,30.07,5.0,Calm,Calm,-,N/A,,Haze,0,2013-07-03 13:35:00
8:55 AM,64.8,59.4,83,30.07,5.0,Calm,Calm,-,N/A,,Haze,0,2013-07-03 13:55:00
9:15 AM,65.3,58.3,78,30.07,7.0,Calm,Calm,-,N/A,,Scattered Clouds,0,2013-07-03 14:15:00
9:35 AM,66.4,58.3,75,30.07,10.0,Calm,Calm,-,N/A,,Scattered Clouds,0,2013-07-03 14:35:00
9:55 AM,68.0,58.8,72,30.07,10.0,Calm,Calm,-,N/A,,Mostly Cloudy,0,2013-07-03 14:55:00
10:15 AM,69.6,58.1,67,30.07,10.0,Calm,Calm,-,N/A,,Scattered Clouds,0,2013-07-03 15:15:00
10:35 AM,71.1,58.8,65,30.07,10.0,NNE,3.5,-,N/A,,Scattered Clouds,20,2013-07-03 15:35:00
10:55 AM,72.5,59.2,63,30.07,10.0,WNW,3.5,-,N/A,,Scattered Clouds,300,2013-07-03 15:55:00
11:15 AM,72.5,59.0,62,30.06,10.0,North,3.5,-,N/A,,Scattered Clouds,360,2013-07-03 16:15:00
11:35 AM,73.8,57.4,56,30.07,10.0,North,5.8,-,N/A,,Clear,350,2013-07-03 16:35:00
11:55 AM,73.9,56.5,54,30.06,10.0,Calm,Calm,-,N/A,,Clear,0,2013-07-03 16:55:00
12:15 PM,74.5,55.8,52,30.05,10.0,Calm,Calm,-,N/A,,Clear,0,2013-07-03 17:15:00
12:35 PM,76.3,56.7,51,30.05,10.0,NNW,3.5,-,N/A,,Clear,340,2013-07-03 17:35:00
12:55 PM,76.5,53.8,45,30.05,10.0,NW,3.5,-,N/A,,Clear,310,2013-07-03 17:55:00
1:15 PM,77.4,51.6,41,30.06,10.0,Calm,Calm,-,N/A,,Scattered Clouds,0,2013-07-03 18:15:00
1:35 PM,77.7,50.2,38,30.05,10.0,Calm,Calm,-,N/A,,Clear,0,2013-07-03 18:35:00
1:55 PM,78.1,48.9,36,30.05,10.0,North,5.8,-,N/A,,Clear,10,2013-07-03 18:55:00
2:15 PM,78.1,50.7,38,30.05,10.0,North,4.6,-,N/A,,Clear,10,2013-07-03 19:15:00
2:35 PM,78.3,50.4,38,30.04,10.0,Calm,Calm,-,N/A,,Clear,0,2013-07-03 19:35:00
2:55 PM,79.3,51.6,38,30.04,10.0,Calm,Calm,-,N/A,,Clear,0,2013-07-03 19:55:00
3:15 PM,79.2,50.0,36,30.03,10.0,Calm,Calm,-,N/A,,Clear,0,2013-07-03 20:15:00
3:35 PM,79.7,49.1,34,30.04,10.0,Calm,Calm,-,N/A,,Clear,0,2013-07-03 20:35:00
3:55 PM,79.5,48.7,34,30.03,10.0,SW,4.6,-,N/A,,Clear,230,2013-07-03 20:55:00
4:15 PM,79.9,49.3,34,30.03,10.0,Calm,Calm,-,N/A,,Clear,0,2013-07-03 21:15:00
4:35 PM,79.7,51.8,38,30.03,10.0,NW,4.6,-,N/A,,Clear,320,2013-07-03 21:35:00
4:55 PM,79.5,51.1,37,30.02,10.0,WSW,3.5,-,N/A,,Clear,240,2013-07-03 21:55:00
5:15 PM,79.7,52.7,39,30.02,10.0,Calm,Calm,-,N/A,,Clear,0,2013-07-03 22:15:00
5:35 PM,79.7,52.9,39,30.02,10.0,Calm,Calm,-,N/A,,Clear,0,2013-07-03 22:35:00
5:55 PM,79.3,53.2,40,30.01,10.0,NW,3.5,-,N/A,,Clear,310,2013-07-03 22:55:00
6:15 PM,79.2,54.3,42,30.01,10.0,Calm,Calm,-,N/A,,Clear,0,2013-07-03 23:15:00
6:35 PM,79.0,53.8,42,30.01,10.0,Calm,Calm,-,N/A,,Clear,0,2013-07-03 23:35:00
6:55 PM,78.8,54.1,42,30.01,10.0,Calm,Calm,-,N/A,,Clear,0,2013-07-03 23:55:00
7:15 PM,77.9,54.1,44,30.01,10.0,Calm,Calm,-,N/A,,Clear,0,2013-07-04 00:15:00
7:35 PM,77.4,54.1,44,30.01,10.0,Calm,Calm,-,N/A,,Clear,0,2013-07-04 00:35:00
7:55 PM,76.1,55.4,49,30.02,10.0,Calm,Calm,-,N/A,,Clear,0,2013-07-04 00:55:00
8:15 PM,74.1,56.7,54,30.02,10.0,Calm,Calm,-,N/A,,Clear,0,2013-07-04 01:15:00
8:35 PM,72.9,57.4,58,30.03,10.0,Calm,Calm,-,N/A,,Clear,0,2013-07-04 01:35:00
8:55 PM,71.2,59.0,65,30.03,10.0,Calm,Calm,-,N/A,,Clear,0,2013-07-04 01:55:00
9:15 PM,69.8,58.1,66,30.04,10.0,Calm,Calm,-,N/A,,Clear,0,2013-07-04 02:15:00
9:35 PM,69.3,57.9,67,30.05,10.0,Calm,Calm,-,N/A,,Clear,0,2013-07-04 02:35:00
9:55 PM,68.9,57.4,67,30.05,10.0,Calm,Calm,-,N/A,,Clear,0,2013-07-04 02:55:00
10:15 PM,68.5,57.2,67,30.05,10.0,Calm,Calm,-,N/A,,Clear,0,2013-07-04 03:15:00
10:35 PM,68.0,57.4,69,30.05,10.0,Calm,Calm,-,N/A,,Clear,0,2013-07-04 03:35:00
10:55 PM,67.3,57.7,71,30.06,10.0,Calm,Calm,-,N/A,,Clear,0,2013-07-04 03:55:00
11:15 PM,66.4,57.7,74,30.07,10.0,Calm,Calm,-,N/A,,Scattered Clouds,0,2013-07-04 04:15:00
11:35 PM,66.2,57.6,74,30.06,10.0,Calm,Calm,-,N/A,,Scattered Clouds,0,2013-07-04 04:35:00
11:55 PM,66.4,57.4,73,30.06,10.0,Calm,Calm,-,N/A,,Clear,0,2013-07-04 04:55:00